Weather History for KAWG - March, 2013

Change the Weather History Date:

Tuesday, March 26, 2013

  Actual Average Record
Temperature  
Mean Temperature 32 °F -  
Max Temperature 39 °F 53 °F 80 °F (2007)
Min Temperature 24 °F 33 °F 14 °F (2001)
Degree Days  
Heating Degree Days 34    
Moisture  
Dew Point 25 °F    
Average Humidity 77    
Maximum Humidity 93    
Minimum Humidity 61    
Precipitation  
Precipitation 0.00 in - - ()
Sea Level Pressure  
Sea Level Pressure 30.28 in    
Wind  
Wind Speed 11 mph (WNW)    
Max Wind Speed 17 mph    
Max Gust Speed 21 mph    
Visibility 10 miles    
Events      
Averages and records for this station are not official NWS values.
T = Trace of Precipitation, MM = Missing Value Source: NWS Daily Summary

Daily Weather History Graph

Daily Weather History Graph

Search for Another Location

Airport or City:

Trip Planner

Search our weather history database for the weather conditions in past years. The results will help you decide how hot, cold, wet, or windy it might be!

Date:

Astronomy

Mar. 26, 2013 Rise Set
Actual Time 6:59 AM CDT 7:25 PM CDT
Civil Twilight 6:31 AM CDT 7:53 PM CDT
Nautical Twilight 5:59 AM CDT 8:25 PM CDT
Astronomical Twilight 5:25 AM CDT 8:59 PM CDT
Moon 7:03 PM CDT (3/26) 6:16 AM CDT (3/26)
Length of Visible Light 13h 21m
Length of Day
12h 26m
Waxing Gibbous, 99% of the Moon is Illuminated
Mar 26
Waxing Gibbous
Mar 27
Full
Apr 2
Last Quarter
Apr 10
New
Apr 18
First Quarter

Hourly Weather History & Observations

Time (CDT) Temp. Windchill Dew Point Humidity Pressure Visibility Wind Dir Wind Speed Gust Speed Precip Events Conditions
12:15 AM 30.2 °F 21.3 °F 26.6 °F 86% 30.21 in 10.0 mi NW 10.4 mph - N/A   Overcast
12:35 AM 32.0 °F 23.6 °F 26.6 °F 80% 30.21 in 10.0 mi NW 10.4 mph - N/A   Overcast
12:55 AM 32.0 °F 23.0 °F 26.6 °F 80% 30.21 in 10.0 mi NW 11.5 mph - N/A   Overcast
1:15 AM 32.0 °F 23.0 °F 26.6 °F 80% 30.21 in 10.0 mi NW 11.5 mph - N/A   Overcast
1:35 AM 32.0 °F 22.5 °F 26.6 °F 80% 30.21 in 10.0 mi NW 12.7 mph - N/A   Overcast
1:55 AM 30.2 °F 20.8 °F 26.6 °F 86% 30.21 in 10.0 mi NW 11.5 mph - N/A   Overcast
2:15 AM 30.2 °F 20.2 °F 24.8 °F 80% 30.22 in 10.0 mi NW 12.7 mph - N/A   Overcast
2:35 AM 30.2 °F 19.8 °F 26.6 °F 86% 30.21 in 10.0 mi NW 13.8 mph - N/A   Overcast
2:55 AM 30.2 °F 19.8 °F 26.6 °F 86% 30.21 in 10.0 mi NW 13.8 mph - N/A   Overcast
3:15 AM 30.2 °F 19.8 °F 24.8 °F 80% 30.21 in 10.0 mi NW 13.8 mph 20.7 mph N/A   Overcast
3:35 AM 30.2 °F 20.8 °F 24.8 °F 80% 30.22 in 10.0 mi NW 11.5 mph 18.4 mph N/A   Overcast
3:55 AM 30.2 °F 19.8 °F 24.8 °F 80% 30.22 in 10.0 mi NW 13.8 mph - N/A   Overcast
4:15 AM 28.4 °F 18.0 °F 24.8 °F 86% 30.22 in 10.0 mi NW 12.7 mph 20.7 mph N/A   Overcast
4:35 AM 28.4 °F 18.0 °F 24.8 °F 86% 30.23 in 10.0 mi NW 12.7 mph - N/A   Overcast
4:55 AM 28.4 °F 18.0 °F 24.8 °F 86% 30.23 in 10.0 mi NW 12.7 mph - N/A   Overcast
5:15 AM 28.4 °F 18.0 °F 24.8 °F 86% 30.23 in 10.0 mi NW 12.7 mph - N/A   Overcast
5:35 AM 26.6 °F 16.2 °F 24.8 °F 93% 30.23 in 10.0 mi NW 11.5 mph - N/A   Mostly Cloudy
5:55 AM 26.6 °F 15.7 °F 23.0 °F 86% 30.24 in 10.0 mi NW 12.7 mph - N/A   Scattered Clouds
6:15 AM 26.6 °F 15.7 °F 23.0 °F 86% 30.24 in 10.0 mi NW 12.7 mph - N/A   Clear
6:35 AM 24.8 °F 13.4 °F 21.2 °F 86% 30.25 in 10.0 mi NW 12.7 mph - N/A   Clear
6:55 AM 24.8 °F 12.9 °F 21.2 °F 86% 30.25 in 10.0 mi NW 13.8 mph - N/A   Clear
7:15 AM 24.8 °F 14.6 °F 21.2 °F 86% 30.25 in 10.0 mi WNW 10.4 mph - N/A   Clear
7:35 AM 24.8 °F 16.1 °F 21.2 °F 86% 30.26 in 10.0 mi West 8.1 mph - N/A   Clear
7:55 AM 24.8 °F 16.1 °F 21.2 °F 86% 30.27 in 10.0 mi West 8.1 mph - N/A   Clear
8:15 AM 24.8 °F 14.6 °F 21.2 °F 86% 30.28 in 10.0 mi West 10.4 mph - N/A   Clear
8:35 AM 24.8 °F 15.3 °F 21.2 °F 86% 30.28 in 10.0 mi WNW 9.2 mph - N/A   Clear
8:55 AM 26.6 °F 16.8 °F 21.2 °F 80% 30.29 in 10.0 mi WNW 10.4 mph - N/A   Clear
9:15 AM 28.4 °F 19.1 °F 23.0 °F 80% 30.29 in 10.0 mi WNW 10.4 mph - N/A   Clear
9:35 AM 28.4 °F 18.0 °F 23.0 °F 80% 30.30 in 10.0 mi WNW 12.7 mph - N/A   Clear
9:55 AM 28.4 °F 19.1 °F 23.0 °F 80% 30.30 in 10.0 mi WNW 10.4 mph - N/A   Clear
10:15 AM 30.2 °F 21.3 °F 24.8 °F 80% 30.31 in 10.0 mi WNW 10.4 mph - N/A   Clear
10:35 AM 30.2 °F 21.3 °F 24.8 °F 80% 30.31 in 10.0 mi WNW 10.4 mph - N/A   Clear
10:55 AM 32.0 °F 23.6 °F 24.8 °F 75% 30.31 in 10.0 mi WNW 10.4 mph - N/A   Clear
11:15 AM 32.0 °F 23.0 °F 24.8 °F 75% 30.31 in 10.0 mi West 11.5 mph - N/A   Clear
11:35 AM 32.0 °F 23.0 °F 24.8 °F 75% 30.31 in 10.0 mi WNW 11.5 mph - N/A   Clear
11:55 AM 33.8 °F 25.3 °F 24.8 °F 70% 30.31 in 10.0 mi WNW 11.5 mph - N/A   Clear
12:15 PM 33.8 °F 24.3 °F 26.6 °F 75% 30.31 in 10.0 mi WNW 13.8 mph - N/A   Clear
12:35 PM 33.8 °F 24.3 °F 26.6 °F 75% 30.31 in 10.0 mi West 13.8 mph - N/A   Clear
12:55 PM 35.6 °F 26.6 °F 26.6 °F 70% 30.31 in 10.0 mi WNW 13.8 mph - N/A   Clear
1:15 PM 35.6 °F 27.1 °F 26.6 °F 70% 30.31 in 10.0 mi West 12.7 mph 18.4 mph N/A   Clear
1:35 PM 35.6 °F 26.6 °F 28.4 °F 75% 30.30 in 10.0 mi WNW 13.8 mph - N/A   Clear
1:55 PM 37.4 °F 29.8 °F 28.4 °F 70% 30.30 in 10.0 mi WNW 11.5 mph - N/A   Clear
2:15 PM 37.4 °F 29.3 °F 26.6 °F 65% 30.30 in 10.0 mi WNW 12.7 mph - N/A   Clear
2:35 PM 37.4 °F 28.5 °F 28.4 °F 70% 30.29 in 10.0 mi WNW 15.0 mph - N/A   Clear
2:55 PM 39.2 °F 31.2 °F 28.4 °F 65% 30.29 in 10.0 mi WNW 13.8 mph 19.6 mph N/A   Clear
3:15 PM 39.2 °F 31.6 °F 28.4 °F 65% 30.29 in 10.0 mi WNW 12.7 mph 20.7 mph N/A   Clear
3:35 PM 39.2 °F 30.8 °F 28.4 °F 65% 30.29 in 10.0 mi WNW 15.0 mph - N/A   Scattered Clouds
3:55 PM 39.2 °F 32.0 °F 28.4 °F 65% 30.29 in 10.0 mi WNW 11.5 mph 18.4 mph N/A   Scattered Clouds
4:15 PM 39.2 °F 30.2 °F 26.6 °F 61% 30.29 in 10.0 mi WNW 17.3 mph 20.7 mph N/A   Scattered Clouds
4:35 PM 39.2 °F 30.5 °F 28.4 °F 65% 30.28 in 10.0 mi WNW 16.1 mph - N/A   Mostly Cloudy
4:55 PM 39.2 °F 31.2 °F 26.6 °F 61% 30.29 in 10.0 mi West 13.8 mph - N/A   Scattered Clouds
5:15 PM 39.2 °F 31.2 °F 26.6 °F 61% 30.29 in 10.0 mi West 13.8 mph - N/A   Mostly Cloudy
5:35 PM 39.2 °F 32.5 °F 26.6 °F 61% 30.29 in 10.0 mi West 10.4 mph 16.1 mph N/A   Overcast
5:55 PM 37.4 °F 30.3 °F 26.6 °F 65% 30.29 in 10.0 mi WNW 10.4 mph - N/A   Overcast
6:15 PM 39.2 °F 31.6 °F 26.6 °F 61% 30.29 in 10.0 mi WNW 12.7 mph - N/A   Overcast
6:35 PM 39.2 °F 33.6 °F 26.6 °F 61% 30.29 in 10.0 mi WNW 8.1 mph - N/A   Overcast
6:55 PM 37.4 °F 32.1 °F 26.6 °F 65% 30.29 in 10.0 mi WNW 6.9 mph - N/A   Overcast
7:15 PM 35.6 °F 30.7 °F 26.6 °F 70% 30.29 in 10.0 mi WNW 5.8 mph - N/A   Scattered Clouds
7:35 PM 33.8 °F 29.6 °F 26.6 °F 75% 30.30 in 10.0 mi WNW 4.6 mph - N/A   Clear
7:55 PM 33.8 °F 29.6 °F 26.6 °F 75% 30.30 in 10.0 mi West 4.6 mph - N/A   Scattered Clouds
8:15 PM 33.8 °F 29.6 °F 26.6 °F 75% 30.30 in 10.0 mi West 4.6 mph - N/A   Scattered Clouds
8:35 PM 32.0 °F 26.4 °F 26.6 °F 80% 30.30 in 10.0 mi West 5.8 mph - N/A   Scattered Clouds
8:55 PM 32.0 °F 26.4 °F 26.6 °F 80% 30.31 in 10.0 mi West 5.8 mph - N/A   Mostly Cloudy
9:15 PM 30.2 °F 25.4 °F 26.6 °F 86% 30.31 in 10.0 mi West 4.6 mph - N/A   Mostly Cloudy
9:35 PM 32.0 °F 27.5 °F 24.8 °F 75% 30.31 in 10.0 mi West 4.6 mph - N/A   Mostly Cloudy
9:55 PM 32.0 °F 27.5 °F 24.8 °F 75% 30.31 in 10.0 mi West 4.6 mph - N/A   Scattered Clouds
10:15 PM 30.2 °F 26.7 °F 24.8 °F 80% 30.31 in 10.0 mi West 3.5 mph - N/A   Scattered Clouds
10:35 PM 30.2 °F 25.4 °F 24.8 °F 80% 30.31 in 10.0 mi West 4.6 mph - N/A   Scattered Clouds
10:55 PM 30.2 °F 25.4 °F 24.8 °F 80% 30.32 in 10.0 mi West 4.6 mph - N/A   Mostly Cloudy
11:15 PM 30.2 °F 24.3 °F 24.8 °F 80% 30.32 in 10.0 mi West 5.8 mph - N/A   Scattered Clouds
11:35 PM 28.4 °F 23.3 °F 24.8 °F 86% 30.32 in 10.0 mi West 4.6 mph - N/A   Scattered Clouds
11:55 PM 28.4 °F 22.2 °F 24.8 °F 86% 30.33 in 10.0 mi West 5.8 mph - N/A   Scattered Clouds